STARLINK-1695 (46329 NORAD) Tracking and Keplerian Element Data

This shows tracking and keplerian element data for the satellite.

Feedback or suggestion? Click here.




ElementValue
Catalog46329
NameSTARLINK-1695
Epoch Orbit178
Epoch Day268.91668981
Epoch Year2020
RAAN323.7589
Inclination53.0012
Eccentricity0.0001285
Argument of Perigee61.6613
Mean Anonmoly146.8305
Mean Motion15.62782754
Decay Rate0.00025339
L11 46329U 20062E 20268.91668981 .00025339 00000-0 28137-3 0 9996
L22 46329 53.0012 323.7589 0001285 61.6613 146.8305 15.62782754 1783

Live tracking and technical data element details for STARLINK-1695 (NORAD 46329). STARLINK-1695 can be tracked NOW for your location showing map with azimuth and elevation plus other details from your city location.

Track the satellite on the map from your city or location and see movement details for azimuth, elevation, latitude, longitude, range, height, and movement on the map or in text.







IsCatalogInMostPopularTable: catalog: 46329, numindb: 1
Update: records affected: 1



GetName: 46329 STARLINK-1695

Hit Count: updated at: Mon, 28 Sep 2020 14:58:07 GMT